Cecil Field, FL

10:18 AM EDT on July 20, 2017 (GMT -0400)
Cecil

Weather History for KVQQ - November, 2013

Change the Weather History Date:

Thursday, November 21, 2013

  Actual Average (KNIP) Record (KNIP)
Temperature  
Mean Temperature 68 °F -  
Max Temperature 75 °F 69 °F 80 °F (1997)
Min Temperature 60 °F 53 °F 43 °F (2000)
Cooling Degree Days 2    
Growing Degree Days 18 (Base 50)    
Moisture  
Dew Point 62 °F    
Average Humidity 92    
Maximum Humidity 100    
Minimum Humidity 69    
Precipitation  
Precipitation 0.00 in - - ()
Sea Level Pressure  
Sea Level Pressure 30.23 in    
Wind  
Wind Speed 8 mph (NNE)    
Max Wind Speed 12 mph    
Max Gust Speed -    
Visibility 5 miles    
Events      
Averages and records for this station are not official NWS values.
T = Trace of Precipitation, MM = Missing Value Source: NWS Daily Summary

Daily Weather History Graph

Daily Weather History Graph

Search for Another Location

Airport or City:

Trip Planner

Search our weather history database for the weather conditions in past years. The results will help you decide how hot, cold, wet, or windy it might be!

Date:

Astronomy

Nov. 21, 2013 Rise Set
Actual Time 6:58 AM EST 5:28 PM EST
Civil Twilight 6:32 AM EST 5:54 PM EST
Nautical Twilight 6:03 AM EST 6:23 PM EST
Astronomical Twilight 5:34 AM EST 6:52 PM EST
Moon 9:01 PM EST (11/21) 10:05 AM EST (11/21)
Length of Visible Light 11h 21m
Length of Day
10h 30m
Waning Gibbous, 85% of the Moon is Illuminated
Nov 21
Waning Gibbous
Nov 25
Last Quarter
Dec 2
New
Dec 9
First Quarter
Dec 17
Full

Hourly Weather History & Observations

Time (EST) Temp. Dew Point Humidity Pressure Visibility Wind Dir Wind Speed Gust Speed Precip Events Conditions
12:15 AM 62.6 °F 60.8 °F 94% 30.19 in 3.0 mi NNE 8.1 mph - N/A   Overcast
12:35 AM 62.6 °F 60.8 °F 94% 30.19 in 3.0 mi NNE 6.9 mph - N/A   Overcast
12:55 AM 62.6 °F 60.8 °F 94% 30.19 in 4.0 mi NNE 8.1 mph - N/A   Overcast
1:15 AM 62.6 °F 60.8 °F 94% 30.19 in 4.0 mi NNE 9.2 mph - N/A   Overcast
1:35 AM 62.6 °F 60.8 °F 94% 30.19 in 4.0 mi North 8.1 mph - N/A   Overcast
1:55 AM 62.6 °F 60.8 °F 94% 30.20 in 5.0 mi North 6.9 mph - N/A   Overcast
2:15 AM 62.6 °F 60.8 °F 94% 30.20 in 5.0 mi NNE 8.1 mph - N/A   Overcast
2:35 AM 62.6 °F 60.8 °F 94% 30.20 in 5.0 mi North 8.1 mph - N/A   Overcast
2:55 AM 62.6 °F 60.8 °F 94% 30.20 in 4.0 mi NNE 5.8 mph - N/A   Overcast
3:15 AM 62.6 °F 60.8 °F 94% 30.20 in 4.0 mi NNE 6.9 mph - N/A   Overcast
3:35 AM 62.6 °F 60.8 °F 94% 30.20 in 4.0 mi NNE 9.2 mph - N/A   Overcast
3:55 AM 62.6 °F 60.8 °F 94% 30.20 in 4.0 mi NNE 6.9 mph - N/A   Overcast
4:15 AM 62.6 °F 60.8 °F 94% 30.20 in 4.0 mi NNE 9.2 mph - N/A   Overcast
4:35 AM 62.6 °F 60.8 °F 94% 30.20 in 5.0 mi North 10.4 mph - N/A   Overcast
4:55 AM 62.6 °F 60.8 °F 94% 30.21 in 5.0 mi North 5.8 mph - N/A   Overcast
5:15 AM 60.8 °F 59.0 °F 94% 30.22 in 5.0 mi North 6.9 mph - N/A   Overcast
5:35 AM 60.8 °F 59.0 °F 94% 30.22 in 5.0 mi North 8.1 mph - N/A   Overcast
5:55 AM 60.8 °F 59.0 °F 94% 30.22 in 5.0 mi North 8.1 mph - N/A   Overcast
6:15 AM 60.8 °F 59.0 °F 94% 30.23 in 5.0 mi North 6.9 mph - N/A   Overcast
6:35 AM 60.8 °F 59.0 °F 94% 30.23 in 5.0 mi North 5.8 mph - N/A   Overcast
6:50 AM 60.8 °F 59.0 °F 94% 30.23 in 2.0 mi NNE 8.1 mph - N/A   Overcast
7:50 AM 62.6 °F 60.8 °F 94% 30.25 in 3.0 mi NNE 8.1 mph - N/A   Overcast
8:50 AM 62.6 °F 62.6 °F 100% 30.26 in 4.0 mi NNE 11.5 mph - N/A   Overcast
9:50 AM 66.2 °F 62.6 °F 88% 30.27 in 5.0 mi NNE 11.5 mph - N/A   Mostly Cloudy
10:10 AM 68.0 °F 62.6 °F 83% 30.27 in 7.0 mi NNE 6.9 mph - N/A   Scattered Clouds
10:50 AM 69.8 °F 64.4 °F 83% 30.27 in 7.0 mi NE 6.9 mph - N/A   Scattered Clouds
11:50 AM 73.4 °F 64.4 °F 73% 30.25 in 7.0 mi NE 8.1 mph - N/A   Partly Cloudy
12:50 PM 75.2 °F 64.4 °F 69% 30.24 in 7.0 mi NE 6.9 mph - N/A   Partly Cloudy
1:50 PM 73.4 °F 66.2 °F 78% 30.22 in 7.0 mi NNE 11.5 mph - N/A   Scattered Clouds
2:50 PM 71.6 °F 64.4 °F 78% 30.21 in 7.0 mi NE 11.5 mph - N/A   Scattered Clouds
3:50 PM 69.8 °F 64.4 °F 83% 30.22 in 7.0 mi NE 11.5 mph - N/A   Partly Cloudy
4:15 PM 68.0 °F 64.4 °F 88% 30.23 in 7.0 mi NNE 11.5 mph - N/A   Mostly Cloudy
4:50 PM 66.2 °F 62.6 °F 88% 30.24 in 5.0 mi NNE 8.1 mph - N/A   Mostly Cloudy
4:55 PM 66.2 °F 62.6 °F 88% 30.24 in 5.0 mi NNE 10.4 mph - N/A   Mostly Cloudy
5:50 PM 66.2 °F 62.6 °F 88% 30.24 in 5.0 mi NE 5.8 mph - N/A   Overcast
6:50 PM 64.4 °F 62.6 °F 94% 30.27 in 5.0 mi NE 11.5 mph - N/A   Overcast
7:50 PM 64.4 °F 62.6 °F 94% 30.27 in 5.0 mi NE 6.9 mph - N/A   Overcast
8:15 PM 64.4 °F 62.6 °F 94% 30.27 in 5.0 mi NNE 6.9 mph - N/A   Overcast
8:35 PM 64.4 °F 62.6 °F 94% 30.27 in 5.0 mi NNE 8.1 mph - N/A   Overcast
8:55 PM 64.4 °F 62.6 °F 94% 30.27 in 6.0 mi North 3.5 mph - N/A   Overcast
9:15 PM 64.4 °F 62.6 °F 94% 30.27 in 6.0 mi North 6.9 mph - N/A   Overcast
9:35 PM 64.4 °F 62.6 °F 94% 30.27 in 5.0 mi North 6.9 mph - N/A   Overcast
9:55 PM 62.6 °F 62.6 °F 100% 30.27 in 5.0 mi North 3.5 mph - N/A   Overcast
10:15 PM 62.6 °F 62.6 °F 100% 30.27 in 6.0 mi North 5.8 mph - N/A   Overcast
10:35 PM 62.6 °F 62.6 °F 100% 30.27 in 5.0 mi NNE 3.5 mph - N/A   Overcast
10:55 PM 62.6 °F 62.6 °F 100% 30.27 in 5.0 mi Calm Calm - N/A   Overcast
11:15 PM 64.4 °F 62.6 °F 94% 30.26 in 4.0 mi North 4.6 mph - N/A   Overcast
11:35 PM 64.4 °F 62.6 °F 94% 30.26 in 2.0 mi Calm Calm - N/A   Overcast
11:55 PM 64.4 °F 64.4 °F 100% 30.26 in 1.8 mi North 3.5 mph - N/A   Overcast